Location: Mercogliano
(40.9167°N, 14.7333°E)
Time: 13:58:23
(UTC+00:00)

CZ-2C R/B - Pass Details

Date: 18 September 2020
Orbit: 704 x 908 km, 98.1° (Epoch: 29 October)

Event Time Altitude Azimuth Distance (km) Brightness Sun altitude
Rises 17:54:24 0° 165° (SSE) 3,215 6.0 -10.2°
Reaches altitude 10° 17:56:38 10° 165° (SSE) 2,321 5.2 -10.6°
Maximum altitude 18:01:47 89° 80° (E) 816 3.1 -11.6°
Drops below altitude 10° 18:07:17 10° 348° (NNW) 2,472 6.0 -12.6°
Sets 18:09:43 0° 348° (NNW) 3,441 6.7 -13.0°
